Location: Newark
(33.6439°N, 114.9881°W)
Time: 15:31:22
(UTC+00:00)

A-11 Canister half - Visible Passes

Search period start: 21 July 2019 00:00
Search period end: 31 July 2019 00:00
Orbit: 1526 x 1683 km, 47.3° (Epoch: 20 July)

Date Brightness Start Highest point End Pass type
(mag) Time Alt. Az. Time Alt. Az. Time Alt. Az.
21 Jul 9.4 04:18:47 10° WSW 04:28:52 70° NNW 04:38:41 10° NE visible
21 Jul 10.3 06:26:22 10° WNW 06:35:27 38° N 06:44:17 10° ENE visible
21 Jul 10.0 08:33:34 10° NW 08:42:44 43° NNE 08:51:37 10° E visible
21 Jul 8.9 10:39:00 10° NW 10:48:39 88° SW 10:58:01 10° SE visible
22 Jul 9.4 03:57:04 10° WSW 04:07:11 72° NNW 04:17:04 10° NE visible
22 Jul 10.2 06:04:34 10° WNW 06:13:42 38° N 06:22:35 10° ENE visible
22 Jul 10.0 08:11:52 10° NW 08:21:01 42° NNE 08:29:52 10° E visible
22 Jul 8.9 10:17:20 10° NW 10:27:02 89° NE 10:36:24 10° SE visible
23 Jul 9.4 03:35:22 10° WSW 03:45:30 75° NW 03:55:26 10° NE visible
23 Jul 10.2 05:42:46 10° WNW 05:51:58 39° NNW 06:00:55 10° NE visible
23 Jul 10.0 07:50:09 10° NW 07:59:18 41° NNE 08:08:08 10° E visible
23 Jul 8.9 09:55:41 10° NW 10:05:24 86° NE 10:14:48 10° SE visible
23 Jul 9.6 12:02:00 10° WNW 12:09:35 28° SW 12:17:03 10° S visible
24 Jul 9.4 03:13:40 10° WSW 03:23:49 78° NW 03:33:47 10° NE visible
24 Jul 10.2 05:20:58 10° W 05:30:13 40° NNW 05:39:14 10° NE visible
24 Jul 10.1 07:28:26 10° NW 07:37:34 40° NNE 07:46:25 10° E visible
24 Jul 9.0 09:34:01 10° NW 09:43:46 82° NE 09:53:11 10° SE visible
24 Jul 9.6 11:40:12 10° WNW 11:48:01 30° SW 11:55:42 10° S visible
25 Jul 9.4 02:51:58 10° WSW 03:02:10 81° NW 03:12:10 10° NE visible
25 Jul 10.2 04:59:10 10° W 05:08:29 41° NNW 05:17:34 10° NE visible
25 Jul 10.1 07:06:43 10° NW 07:15:50 40° NNE 07:24:40 10° E visible
25 Jul 9.0 09:12:21 10° NW 09:22:08 79° NE 09:31:33 10° ESE visible
25 Jul 9.5 11:18:26 10° WNW 11:26:28 32° SW 11:34:21 10° S visible
26 Jul 10.2 04:37:22 10° W 04:46:44 41° NNW 04:55:53 10° NE visible
26 Jul 10.1 06:44:58 10° NW 06:54:06 39° N 07:02:56 10° ENE visible
26 Jul 9.0 08:50:42 10° NW 09:00:29 76° NE 09:09:55 10° ESE visible
26 Jul 9.4 10:56:39 10° WNW 11:04:54 34° SW 11:12:58 10° S visible
27 Jul 10.2 04:15:33 10° W 04:25:00 42° NNW 04:34:13 10° NE visible
27 Jul 10.1 06:23:14 10° WNW 06:32:22 39° N 06:41:12 10° ENE visible
27 Jul 9.1 08:29:01 10° NW 08:38:49 73° NNE 08:48:16 10° ESE visible
27 Jul 9.3 10:34:54 10° WNW 10:43:20 36° SW 10:51:35 10° SSE visible
28 Jul 10.2 03:53:45 10° W 04:03:15 43° NNW 04:12:33 10° NE visible
28 Jul 10.2 06:01:30 10° WNW 06:10:37 38° N 06:19:28 10° ENE visible
28 Jul 9.1 08:07:21 10° NW 08:17:10 70° NNE 08:21:00 41° ESE visible
28 Jul 9.6 10:13:08 10° WNW 10:30:31 - SSE 10:19:02 33° W visible
29 Jul 10.2 03:31:58 10° W 03:41:31 44° NNW 03:50:53 10° NE visible
29 Jul 10.2 05:39:45 10° WNW 05:48:53 38° N 05:57:43 10° ENE visible
29 Jul 9.1 07:45:42 10° NW 07:55:31 68° NNE 07:58:06 51° E visible
29 Jul 9.9 09:51:24 10° WNW 09:56:15 29° W 09:56:15 29° W visible
30 Jul 10.2 03:10:10 10° W 03:19:47 45° NNW 03:29:13 10° NE visible
30 Jul 10.2 05:18:00 10° WNW 05:27:08 38° N 05:35:59 10° ENE visible
30 Jul 9.2 07:24:01 10° NW 07:33:50 65° NNE 07:36:03 53° E visible
30 Jul 10.0 09:29:40 10° WNW 09:34:14 29° W 09:34:14 29° W visible
